Location: Cella
(44.7333°N, 10.5667°E)
Time: 18:26:38
(UTC+00:00)

Cosmos 2322 Rocket - Visible Passes

Search period start: 16 June 2021 00:00
Search period end: 26 June 2021 00:00
Orbit: 831 x 852 km, 71.0° (Epoch: 16 June)

Date Brightness Start Highest point End Pass type
(mag) Time Alt. Az. Time Alt. Az. Time Alt. Az.
16 Jun 2.3 20:01:34 10° S 20:07:07 57° ESE 20:12:44 10° NNE visible
16 Jun 4.3 21:46:49 10° WSW 21:51:33 26° NW 21:56:18 10° N visible
17 Jun 2.4 19:46:33 10° S 19:52:05 55° ESE 19:57:39 10° NNE visible
17 Jun 4.3 21:31:40 10° WSW 21:36:27 27° NW 21:41:18 10° N visible
18 Jun 2.4 19:31:34 10° S 19:37:03 52° ESE 19:42:34 10° NE visible
18 Jun 4.3 21:16:30 10° WSW 21:21:22 28° NW 21:26:17 10° N visible
19 Jun 4.2 21:01:21 10° WSW 21:06:17 30° NW 21:11:16 10° N visible
20 Jun 4.2 20:46:12 10° WSW 20:51:12 31° NW 20:56:15 10° N visible
21 Jun 4.2 20:31:03 10° WSW 20:36:07 32° NW 20:41:13 10° N visible
22 Jun 4.2 20:15:55 10° WSW 20:21:03 33° NW 20:26:13 10° N visible
23 Jun 4.1 20:00:47 10° WSW 20:05:58 35° NW 20:11:11 10° N visible
24 Jun 4.1 19:45:39 10° WSW 19:50:54 36° NW 19:56:09 10° NNE visible
25 Jun 4.7 02:53:36 10° N 02:58:26 28° NE 03:03:14 10° ESE visible
